User: anonymous   Login
Location: Kapla
(46.2483°N, 15.0094°E)
Time: 22:02:31
(UTC+00:00)
Language:

Meteor 1-18 Rocket - Orbit

View from above orbital plane
View from above orbital plane
View from above satellite
View from above satellite

Ground track
Ground track

The orbit data is extracted from the following two-line orbital elements,

1 07364U 74052B   21129.61288900  .00000160  00000-0  88903-4 0  9996
2 07364  81.2340 210.6341 0050528 107.6953 252.9741 14.06039656401014
Epoch (UTC): 09 May 2021 14:42:33
Eccentricity: 0.0050528
inclination: 81.2340°
perigee height: 836 km
apogee height: 909 km
right ascension of ascending node: 210.6341°
argument of perigee: 107.6953°
revolutions per day: 14.06039656
mean anomaly at epoch: 252.9741°
orbit number at epoch: 40101

The dashed part of the orbit path shows where the satellite is in the earth's shadow,  

DLR